FW9446 Weather Reports


time (UTC)temp
C
wind
direction
speed
KPH
gust
KPH
rain 1hr
cm
rain 24hr
cm
rain mn
cm
humidity
%
barometer
mb
20260506092101 20 0 1.6 6.4 0.00 0.00 0.00 78 1011.6
20260506091558 20 0 0.0 6.4 0.00 0.00 0.00 78 1011.6
20260506091057 20 0 0.0 6.4 0.00 0.00 0.00 77 1011.6
20260506090558 20 230 0.0 6.4 0.00 0.00 0.00 77 1011.5
20260506090101 20 310 0.0 6.4 0.00 0.00 0.00 77 1011.5
20260506085557 20 0 0.0 4.8 0.00 0.00 0.00 77 1011.5
20260506085100 20 0 0.0 4.8 0.00 0.00 0.00 77 1011.4
20260506084604 20 0 0.0 4.8 0.00 0.00 0.00 76 1011.3
20260506084102 20 0 0.0 4.8 0.00 0.00 0.00 76 1011.4
20260506083558 20 0 0.0 8.0 0.00 0.00 0.00 76 1011.3
20260506083101 20 22 0.0 8.0 0.00 0.00 0.00 76 1011.2
20260506082557 20 0 0.0 6.4 0.00 0.00 0.00 76 1011.3
20260506082057 20 317 0.0 6.4 0.00 0.00 0.00 76 1011.3
20260506081601 20 0 0.0 3.2 0.00 0.00 0.00 76 1011.3
20260506081057 20 0 0.0 4.8 0.00 0.00 0.00 76 1011.5
20260506080557 20 0 0.0 4.8 0.00 0.00 0.00 76 1011.4
20260506073058 20 0 0.0 11.3 0.00 0.00 0.00 73 1011.2
20260506072557 20 273 1.6 11.3 0.00 0.00 0.00 73 1011.1
20260506072057 20 0 1.6 9.7 0.00 0.00 0.00 73 1011.2
20260506071602 20 244 1.6 9.7 0.00 0.00 0.00 72 1011.1
20260506071057 20 306 0.0 11.3 0.00 0.00 0.00 72 1011.2
20260506070600 20 0 0.0 11.3 0.00 0.00 0.00 71 1011.3
20260506070104 20 331 0.0 4.8 0.00 0.00 0.00 71 1011.3
20260506062100 20 0 0.0 4.8 0.00 0.00 0.00 69 1011.8
20260506061558 20 0 0.0 4.8 0.00 0.00 0.00 69 1011.9
20260506061057 20 0 0.0 6.4 0.00 0.00 0.00 69 1012.0
20260506060557 20 295 0.0 6.4 0.00 0.00 0.00 69 1012.0
20260506060108 20 255 0.0 4.8 0.00 0.00 0.00 69 1012.0
20260506051100 20 304 0.0 4.8 0.00 0.00 0.00 66 1012.0
20260506050557 20 0 0.0 6.4 0.00 0.00 0.00 66 1012.2
20260506050108 20 0 0.0 6.4 0.00 0.00 0.00 66 1012.1
20260506045057 20 298 0.0 4.8 0.00 0.00 0.00 67 1012.2
20260506044606 20 0 0.0 4.8 0.00 0.00 0.00 67 1012.3
20260506044056 20 0 0.0 4.8 0.00 0.00 0.00 67 1012.2
20260506043556 20 313 0.0 3.2 0.00 0.00 0.00 67 1012.2
20260506043110 20 0 0.0 3.2 0.00 0.00 0.00 68 1012.2
20260506042557 20 0 0.0 8.0 0.00 0.00 0.00 69 1012.2
20260506042058 20 0 0.0 8.0 0.00 0.00 0.00 68 1012.1
20260506041606 20 0 0.0 8.0 0.00 0.00 0.00 66 1012.2
20260506041058 20 0 0.0 8.0 0.00 0.00 0.00 69 1012.3
20260506040557 20 0 1.6 8.0 0.00 0.00 0.00 66 1012.3
20260506040109 20 0 0.0 3.2 0.00 0.00 0.00 68 1012.3
20260506035557 20 0 0.0 4.8 0.00 0.00 0.00 69 1012.3
20260506035057 20 0 0.0 4.8 0.00 0.00 0.00 68 1012.4
20260506034601 20 0 0.0 4.8 0.00 0.00 0.00 68 1012.5
20260506034056 20 0 0.0 4.8 0.00 0.00 0.00 67 1012.5
20260506033556 20 0 0.0 0.0 0.00 0.00 0.00 68 1012.5
20260506033058 20 0 0.0 0.0 0.00 0.00 0.00 67 1012.7
20260506032557 20 0 0.0 0.0 0.00 0.00 0.00 67 1012.6
20260506032058 20 0 0.0 0.0 0.00 0.00 0.00 68 1012.5
20260506031604 20 0 0.0 0.0 0.00 0.00 0.00 65 1012.3
20260506031057 20 0 0.0 0.0 0.00 0.00 0.00 68 1012.3
20260506030557 21 0 0.0 6.4 0.00 0.00 0.00 64 1012.3
20260506030107 21 0 0.0 6.4 0.00 0.00 0.00 64 1012.6
20260506025557 21 249 0.0 3.2 0.00 0.00 0.00 63 1012.5
20260506025057 21 0 0.0 4.8 0.00 0.00 0.00 62 1012.7
20260506024600 21 0 0.0 6.4 0.00 0.00 0.00 62 1012.8
20260506024057 21 0 0.0 6.4 0.00 0.00 0.00 62 1012.7
20260506023557 21 0 0.0 1.6 0.00 0.00 0.00 61 1012.8
20260506023058 21 233 0.0 12.9 0.00 0.00 0.00 61 1012.8
20260506022557 21 299 0.0 12.9 0.00 0.00 0.00 60 1012.5
20260506022057 21 186 1.6 12.9 0.00 0.00 0.00 60 1012.3
20260506021601 21 296 0.0 3.2 0.00 0.00 0.00 61 1012.5
20260506021057 21 0 0.0 6.4 0.00 0.00 0.00 60 1012.6
20260506020556 21 248 1.6 6.4 0.00 0.00 0.00 59 1012.3
20260506020100 21 263 0.0 6.4 0.00 0.00 0.00 60 1012.2
20260506015557 21 179 1.6 6.4 0.00 0.00 0.00 61 1012.2
20260506015057 21 0 0.0 6.4 0.00 0.00 0.00 60 1012.3
20260506014607 21 241 1.6 11.3 0.00 0.00 0.00 60 1012.3
20260506014056 21 0 1.6 11.3 0.00 0.00 0.00 59 1012.2
20260506013556 21 211 1.6 11.3 0.00 0.00 0.00 59 1012.0
20260506013056 21 242 0.0 9.7 0.00 0.00 0.00 59 1012.1
20260506012557 21 217 0.0 6.4 0.00 0.00 0.00 60 1012.0
20260506012101 21 0 0.0 6.4 0.00 0.00 0.00 60 1012.0
20260506011557 21 232 0.0 6.4 0.00 0.00 0.00 59 1012.0
20260506011057 21 0 0.0 4.8 0.00 0.00 0.00 61 1011.9
20260506010557 21 0 0.0 3.2 0.00 0.00 0.00 61 1011.9
20260506010105 21 315 0.0 4.8 0.00 0.00 0.00 61 1011.9
20260506005558 21 0 0.0 4.8 0.00 0.00 0.00 63 1011.8
20260506005057 21 0 0.0 4.8 0.00 0.00 0.00 59 1011.8
20260506004558 21 0 0.0 3.2 0.00 0.00 0.00 59 1011.9
20260506004057 21 0 0.0 1.6 0.00 0.00 0.00 60 1011.8
20260506003557 21 311 0.0 1.6 0.00 0.00 0.00 60 1011.8
20260506003100 21 0 0.0 1.6 0.00 0.00 0.00 59 1012.0
20260506002556 21 0 0.0 1.6 0.00 0.00 0.00 60 1012.0
20260506002100 21 0 0.0 3.2 0.00 0.00 0.00 57 1012.0
20260506001600 21 0 0.0 3.2 0.00 0.00 0.00 59 1012.1
20260506001057 21 0 0.0 4.8 0.00 0.00 0.00 55 1012.1
20260506000601 21 0 0.0 4.8 0.00 0.00 0.00 59 1012.1
20260506000100 21 294 0.0 4.8 0.00 0.00 0.00 57 1011.9
20260505235600 21 311 0.0 4.8 0.00 0.00 0.00 55 1011.9
20260505235100 21 217 0.0 3.2 0.00 0.00 0.00 55 1011.9
20260505234557 22 0 0.0 8.0 0.00 0.00 0.00 56 1011.9
20260505234057 22 0 0.0 8.0 0.00 0.00 0.00 57 1012.1
20260505233557 22 0 0.0 9.7 0.00 0.00 0.00 53 1011.9
20260505233129 22 0 1.6 9.7 0.00 0.00 0.00 54 1011.9
20260505232557 22 279 0.0 11.3 0.00 0.00 0.00 52 1012.0
20260505232058 22 312 0.0 11.3 0.00 0.00 0.00 53 1012.1
20260505231558 22 0 1.6 6.4 0.00 0.00 0.00 53 1012.0
20260505231056 22 0 0.0 4.8 0.00 0.00 0.00 54 1011.9
20260505230556 22 0 0.0 4.8 0.00 0.00 0.00 56 1012.0
20260505230101 22 306 0.0 4.8 0.00 0.00 0.00 53 1011.9
20260505225557 21 0 0.0 3.2 0.00 0.00 0.00 60 1011.9
20260505225057 21 360 0.0 0.0 0.00 0.00 0.00 57 1012.1
20260505224558 21 0 0.0 3.2 0.00 0.00 0.00 60 1012.2
20260505224103 21 0 0.0 3.2 0.00 0.00 0.00 55 1012.1
20260505223600 21 182 0.0 3.2 0.00 0.00 0.00 57 1012.0
20260505223102 21 0 0.0 4.8 0.00 0.00 0.00 59 1011.9
20260505222600 21 0 0.0 6.4 0.00 0.00 0.00 65 1011.8
20260505222100 21 0 0.0 6.4 0.00 0.00 0.00 56 1011.9
20260505221604 21 196 0.0 6.4 0.00 0.00 0.00 60 1012.0
20260505221104 20 121 1.6 6.4 0.00 0.00 0.00 61 1012.1
20260505220600 20 309 0.0 4.8 0.00 0.00 0.00 67 1011.9
20260505220059 20 0 0.0 4.8 0.00 0.00 0.00 62 1011.9
20260505215557 21 0 0.0 3.2 0.00 0.00 0.00 67 1011.8
20260505215058 21 0 0.0 4.8 0.00 0.00 0.00 64 1011.7
20260505214605 22 0 0.0 4.8 0.00 0.00 0.00 61 1011.5
20260505214101 22 0 0.0 6.4 0.00 0.00 0.00 53 1012.2
20260505213602 22 0 0.0 6.4 0.00 0.00 0.00 52 1012.6
20260505213136 23 269 0.0 3.2 0.00 0.00 0.00 51 1012.7
20260505212557 23 0 0.0 3.2 0.00 0.00 0.00 46 1012.7
20260505212057 23 0 0.0 3.2 0.00 0.00 0.00 49 1012.9
20260505211559 23 0 0.0 6.4 0.00 0.00 0.00 47 1012.9
20260505211057 23 0 0.0 11.3 0.00 0.00 0.00 47 1012.8
20260505210558 23 244 3.2 11.3 0.00 0.00 0.00 45 1012.8
20260505210106 23 269 0.0 8.0 0.00 0.00 0.00 48 1012.6
20260505205557 23 230 1.6 11.3 0.00 0.00 0.00 48 1012.5
20260505205059 24 262 0.0 11.3 0.00 0.00 0.00 49 1012.5
20260505204559 24 238 1.6 11.3 0.00 0.00 0.00 48 1012.7
20260505204056 24 244 0.0 11.3 0.00 0.00 0.00 49 1012.7
20260505203557 25 346 0.0 12.9 0.00 0.00 0.00 49 1012.6
20260505203059 25 0 3.2 12.9 0.00 0.00 0.00 46 1012.7
20260505202557 25 0 1.6 9.7 0.00 0.00 0.00 44 1012.7
20260505202057 25 352 1.6 9.7 0.00 0.00 0.00 45 1012.8
20260505201558 25 229 0.0 14.5 0.00 0.00 0.00 44 1013.0
20260505201056 25 0 0.0 14.5 0.00 0.00 0.00 45 1013.1
20260505200558 26 157 4.8 14.5 0.00 0.00 0.00 45 1013.2
20260505200056 25 119 1.6 17.7 0.00 0.00 0.00 50 1013.0
20260505195556 25 284 4.8 17.7 0.00 0.00 0.00 47 1013.2
20260505195059 25 257 4.8 19.3 0.00 0.00 0.00 46 1013.1
20260505194601 25 257 6.4 19.3 0.00 0.00 0.00 46 1013.3
20260505194056 25 294 3.2 22.5 0.00 0.00 0.00 47 1013.2
20260505193557 25 190 6.4 22.5 0.00 0.00 0.00 45 1013.5
20260505193124 25 200 3.2 14.5 0.00 0.00 0.00 49 1013.4
20260505192557 25 259 6.4 16.1 0.00 0.00 0.00 46 1013.5
20260505192057 25 209 1.6 16.1 0.00 0.00 0.00 50 1013.7
20260505191606 25 269 1.6 17.7 0.00 0.00 0.00 47 1013.5
20260505191057 25 205 4.8 17.7 0.00 0.00 0.00 47 1013.6
20260505190556 25 199 4.8 16.1 0.00 0.00 0.00 46 1013.6
20260505190057 25 242 4.8 17.7 0.00 0.00 0.00 45 1013.5
20260505185557 25 277 4.8 17.7 0.00 0.00 0.00 47 1013.7
20260505185058 25 269 4.8 19.3 0.00 0.00 0.00 47 1013.8
20260505184602 25 279 1.6 19.3 0.00 0.00 0.00 47 1013.7
20260505184058 25 225 3.2 19.3 0.00 0.00 0.00 47 1014.1
20260505183557 25 262 1.6 12.9 0.00 0.00 0.00 44 1014.1
20260505183057 25 352 3.2 12.9 0.00 0.00 0.00 48 1014.1
20260505182557 25 271 1.6 17.7 0.00 0.00 0.00 51 1014.0
20260505182056 24 0 3.2 19.3 0.00 0.00 0.00 50 1014.3
20260505181557 25 352 6.4 19.3 0.00 0.00 0.00 47 1014.4
20260505181056 25 0 3.2 16.1 0.00 0.00 0.00 48 1014.3
20260505180556 25 269 3.2 16.1 0.00 0.00 0.00 48 1014.4
20260505180058 25 124 3.2 16.1 0.00 0.00 0.00 46 1014.3
20260505175557 25 334 1.6 16.1 0.00 0.00 0.00 50 1014.4
20260505175057 25 323 4.8 27.4 0.00 0.00 0.00 46 1014.4
20260505174557 24 352 4.8 27.4 0.00 0.00 0.00 49 1014.4
20260505174100 24 26 4.8 17.7 0.00 0.00 0.00 48 1014.5
20260505173557 24 290 3.2 19.3 0.00 0.00 0.00 49 1014.6
20260505173100 24 222 4.8 20.9 0.00 0.00 0.00 48 1014.6
20260505172556 24 360 4.8 20.9 0.00 0.00 0.00 46 1014.8
20260505172056 23 233 4.8 22.5 0.00 0.00 0.00 50 1014.9
20260505171559 23 188 6.4 22.5 0.00 0.00 0.00 48 1015.0
20260505171057 23 219 4.8 14.5 0.00 0.00 0.00 46 1015.2
20260505170557 23 185 3.2 14.5 0.00 0.00 0.00 49 1015.4
20260505170057 23 134 3.2 14.5 0.00 0.00 0.00 47 1015.2
20260505165556 23 323 4.8 16.1 0.00 0.00 0.00 48 1015.3
20260505165102 23 139 4.8 16.1 0.00 0.00 0.00 47 1015.2
20260505164557 23 247 4.8 17.7 0.00 0.00 0.00 47 1015.3
20260505164056 23 148 3.2 17.7 0.00 0.00 0.00 49 1015.4
20260505163555 23 337 1.6 16.1 0.00 0.00 0.00 55 1015.6
20260505163100 23 185 3.2 16.1 0.00 0.00 0.00 54 1015.4
20260505162558 23 145 1.6 9.7 0.00 0.00 0.00 56 1015.6
20260505162056 23 150 1.6 12.9 0.00 0.00 0.00 57 1015.4
20260505161601 23 0 0.0 12.9 0.00 0.00 0.00 61 1015.4
20260505161057 23 237 0.0 4.8 0.00 0.00 0.00 63 1015.3
20260505160557 23 0 0.0 3.2 0.00 0.00 0.00 59 1015.2
20260505153105 21 109 1.6 14.5 0.00 0.00 0.00 62 1015.8
20260505152558 21 0 1.6 14.5 0.00 0.00 0.00 64 1015.7
20260505152058 21 171 1.6 9.7 0.00 0.00 0.00 62 1015.8
20260505151600 21 236 3.2 12.9 0.00 0.00 0.00 64 1015.7
20260505151102 21 215 1.6 12.9 0.00 0.00 0.00 67 1015.9
20260505150559 20 149 1.6 12.9 0.00 0.00 0.00 64 1015.7
20260505140558 17 161 0.0 3.2 0.00 0.00 0.00 77 1015.8
20260505140106 16 0 0.0 3.2 0.00 0.00 0.00 82 1015.7
20260505130107 11 0 0.0 0.0 0.00 0.00 0.00 95 1016.0
20260505124604 11 0 0.0 0.0 0.00 0.00 0.00 95 1015.7
20260505124057 11 0 0.0 0.0 0.00 0.00 0.00 95 1015.4
20260505123559 11 0 0.0 0.0 0.00 0.00 0.00 95 1015.3
20260505123114 10 0 0.0 0.0 0.00 0.00 0.00 95 1015.3
20260505122556 10 0 0.0 0.0 0.00 0.00 0.00 95 1015.3
20260505122056 10 0 0.0 0.0 0.00 0.00 0.00 95 1015.0
20260505121556 10 0 0.0 0.0 0.00 0.00 0.00 95 1014.9
20260505121059 10 0 0.0 0.0 0.00 0.00 0.00 95 1015.0
20260505120555 10 0 0.0 0.0 0.00 0.00 0.00 95 1014.9
20260505120108 10 0 0.0 0.0 0.00 0.00 0.00 95 1014.8
20260505115556 9 0 0.0 0.0 0.00 0.00 0.00 95 1014.7
20260505115056 9 0 0.0 0.0 0.00 0.00 0.00 95 1014.8
20260505114558 9 0 0.0 0.0 0.00 0.00 0.00 95 1014.7
20260505114057 8 0 0.0 0.0 0.00 0.00 0.00 95 1014.7
20260505113559 8 0 0.0 0.0 0.00 0.00 0.00 95 1014.6
20260505113108 8 0 0.0 0.0 0.00 0.00 0.00 95 1014.5
20260505112556 8 0 0.0 0.0 0.00 0.00 0.00 95 1014.5
20260505112059 8 0 0.0 0.0 0.00 0.00 0.00 95 1014.3
20260505111558 8 0 0.0 0.0 0.00 0.00 0.00 94 1014.3
20260505111056 8 0 0.0 0.0 0.00 0.00 0.00 94 1014.2
20260505110555 8 0 0.0 0.0 0.00 0.00 0.00 94 1014.2
20260505102056 8 0 0.0 0.0 0.00 0.00 0.00 94 1013.7
20260505101558 8 0 0.0 0.0 0.00 0.00 0.00 94 1013.8
20260505101057 8 0 0.0 0.0 0.00 0.00 0.00 93 1013.7
20260505100556 8 0 0.0 0.0 0.00 0.00 0.00 93 1013.8
20260505095559 8 0 0.0 0.0 0.00 0.00 0.00 94 1013.6
20260505095057 8 0 0.0 0.0 0.00 0.00 0.00 94 1013.6
20260505094556 8 0 0.0 0.0 0.00 0.00 0.00 94 1013.5
20260505094056 8 0 0.0 0.0 0.00 0.00 0.00 94 1013.6
20260505093556 8 0 0.0 0.0 0.00 0.00 0.00 94 1013.8
20260505093057 8 0 0.0 0.0 0.00 0.00 0.00 94 1013.9
20260505092555 8 0 0.0 0.0 0.00 0.00 0.00 94 1013.9